Find INTELSAT IV F2

NORAD ID: 4881 Int'l Des: 1971-006 Owner: INTEL Country: I-INT operational
HEOCIRCULAR

Live Position

Loading 3D Globe...

About INTELSAT IV F2

Description loading...

Upcoming Passes

Passes for default location (London). Set your location on the main map for personalized predictions.

Altitude History

Loading altitude history...

Two-Line Element Set

1 4881U 71006A 26109.72218975 -.00000138 00000-0 00000+0 0 9996
2 4881 4.4965 277.0936 0013521 95.4986 104.5085 0.98839573120927
Epoch: Apr 19, 2026 • Age: 11 hours

Current Status

Altitude 36201.8 km
Velocity 3.06 km/s
Sub-Earth Point -0.28°S, 6.87°E
Type communications

Most Searched